Other Public Products
Issued by NWS Grand Forks, ND

Home | Current Version | Previous Version | Graphics & Text | Print | Product List | Glossary On
Versions: 1 2 3 4 5 6 7 8 9 10 11 12 13 14 15 16 17 18 19 20 21 22 23 24 25 26 27 28 29 30 31 32 33 34 35 36 37 38 39 40 41 42 43 44 45 46 47 48 49 50
000
FPUS83 KFGF 101510
OPUFGF
PRAIRIE TO PINES WEATHER ROUNDUP
NATIONAL WEATHER SERVICE EASTERN NORTH DAKOTA/GRAND FORKS ND
900 AM CST SUN DEC 10 2017

 **SATELLITE DATA USED TO AUGMENT SKY COVER AT AUTOMATED STATIONS**
 *****  WEATHER ACROSS EASTERN NORTH DAKOTA  *****

CITY           SKY/WX    TMP DP  RH WIND       PRES   REMARKS
GRAND FORKS    MOCLDY    19  16  88 NW5       30.02R WCI  12
GRND FORKS AFB FLURRIES  18  15  91 NW5       30.03R WCI  11
GRND FORKS NWS   N/A     19 N/A N/A N2          N/A
BUXTON         NOT AVBL
DEVILS LAKE    CLOUDY    22  20  92 CALM      30.00R
FARGO          FAIR      17  15  92 N6        30.03S WCI   9
WAHPETON ARPT    N/A     23  18  80 N5        30.02S WCI  17
$$

 *****  WEATHER ACROSS CENTRAL AND WESTERN NORTH DAKOTA  *****

CITY           SKY/WX    TMP DP  RH WIND       PRES   REMARKS
JAMESTOWN      FAIR      27  23  85 W10       30.00R WCI  17
BISMARCK       FAIR      33  21  61 W7        30.06S
MINOT          FAIR      37  23  56 W15       29.99S
MINOT AFB      CLOUDY    35  23  61 NW13      29.98S
GARRISON         N/A     33  21  61 NW9       30.02S
WILLISTON      FAIR      33  20  58 SW6       30.07F
DICKINSON      CLOUDY    35  18  49 W20       30.07S WCI  24
HETTINGER      FAIR      35  14  42 W15       30.13S
$$

 *****  OTHER OBSERVATIONS NORTHEAST NORTH DAKOTA  *****

CITY           SKY/WX    TMP DP  RH WIND       PRES   REMARKS
WALHALLA       FAIR      19  19 100 CALM      30.03R
LANGDON        NOT AVBL
CAVALIER       FAIR      19  18  93 CALM      30.02S
GRAFTON        NOT AVBL
CANDO          CLOUDY    25  25 100 CALM      30.01S
FORT TOTTEN      N/A     25  22  87 CALM      29.95S
ROLLA          CLOUDY    27  25  93 CALM      29.97S
RUGBY          NOT AVBL
 ***** THE ABOVE OBSERVATIONS ARE NON NWS ARE NOT QUALITY
        CONTROLLED AND MAY MIS-REPORT RAIN FOR SNOW...
$$

 *****  OTHER OBSERVATIONS SOUTHEAST NORTH DAKOTA *****

CITY           SKY/WX    TMP DP  RH WIND       PRES   REMARKS
COOPERSTOWN    PTSUNNY   21  19  93 CALM      30.01R
VALLEY CITY    NOT AVBL
OAKES            N/A     25  25 100 W5        30.04R WCI  19
GWINNER          N/A     25  23  93 W7        30.02R WCI  17
SHEYENNE NWR     N/A     22  19  89 N2        29.95
BUFFALO        NOT AVBL
WYNDMERE       NOT AVBL
 ***** THE ABOVE OBSERVATIONS ARE NON NWS ARE NOT QUALITY
       CONTROLLED AND MAY MIS-REPORT RAIN FOR SNOW...
$$

  *****  WEATHER ACROSS NORTHERN MINNESOTA  *****

CITY           SKY/WX    TMP DP  RH WIND       PRES   REMARKS
FLAG ISLAND    CLOUDY    16  10  79 N7        30.00R WCI   6
WARROAD        FLURRIES  18  12  79 NW3       30.01R
ROSEAU         CLOUDY    19  16  86 N5        30.01R WCI  13
HALLOCK        CLOUDY    21  18  86 N6        30.02R WCI  14
THF RVR FALLS  CLOUDY    19  16  88 N7        30.01R WCI  10
HALSTAD        NOT AVBL
FOSSTON        CLOUDY    18  16  93 NW7       29.99S WCI   8
BAUDETTE       CLOUDY    16  12  84 N6        29.99R WCI   7
WASKISH        CLOUDY    18  16  93 N6        29.95F WCI   9
CROOKSTON      CLOUDY    21  18  86 N7        30.03R WCI  13
$$
  *****  WEATHER ACROSS CENTRAL AND WEST MINNESOTA  *****

CITY           SKY/WX    TMP DP  RH WIND       PRES   REMARKS
BEMIDJI        CLOUDY    20  17  87 NW12      29.97R WCI   8
PARK RAPIDS    CLOUDY    22  18  85 NW9       29.95R WCI  12
WADENA         CLOUDY    21  18  86 NW9       29.97R WCI  11
DETROIT LAKES  CLOUDY    23  21  93 N7        29.99S WCI  15
MOORHEAD       FAIR      18  14  86 CALM      30.03R
FERGUS FALLS   FAIR      19  18  93 N5        30.03S WCI  13
ELBOW LAKE     FAIR      20  18  92 NW9       30.00R WCI  10
MORRIS MN      FAIR      25  19  80 N12       30.00R WCI  14
STAPLES        CLOUDY    23  18  80 NW9       29.97R WCI  13
WHEATON        NOT AVBL
$$
  *****  WEATHER ELSEWHERE ACROSS MINNESOTA  *****

CITY           SKY/WX    TMP DP  RH WIND       PRES   REMARKS
DULUTH         CLOUDY    18  14  84 N8        29.89R WCI   8
INTRNTL FALLS  CLOUDY    15   9  76 NW6       29.97R HAZE    WCI   6
ELY            FLURRIES  12   9  85 NW6       29.91R WCI   3
CLOQUET        CLOUDY    19  14  79 NW12G17   29.91R WCI   7
BRAINERD       CLOUDY    24  18  77 NW9       29.95R WCI  14
HIBBING        CLOUDY    16  12  84 N13       29.93R WCI   2
ALEXANDRIA     CLOUDY    24  20  84 N12       29.98R WCI  13
SAINT CLOUD    CLOUDY    26  21  81 NW13      29.95R WCI  15
MINNEAPOLIS    CLOUDY    27  22  81 NW13      29.96R WCI  16
$$

  *****  WEATHER ACROSS SOUTH DAKOTA  *****

CITY           SKY/WX    TMP DP  RH WIND       PRES   REMARKS
SIOUX FALLS    MOCLDY    31  26  82 NW8       30.04S WCI  23
BROOKINGS      FAIR      28  25  88 W7        30.02R WCI  21
WATERTOWN      FAIR      28  25  88 NW10      30.00R WCI  19
HURON          FAIR      28  24  85 W10       30.07S WCI  19
SISSETON         N/A     28  23  81 NW6       30.01R WCI  22
ABERDEEN       FAIR      30  24  78 NW7       30.04S WCI  23
MITCHELL       FAIR      34  26  72 NW10      30.09R
PIERRE         FAIR      40  21  46 NW16      30.11R
MOBRIDGE       FAIR      37  22  54 NW12      30.05F
RAPID CITY     FAIR      44   7  21 NW9       30.21F
$$

  *****  SOME WEATHER IN NEARBY STATES *****

CITY           SKY/WX    TMP DP  RH WIND       PRES   REMARKS
GLASGOW MT     FAIR      31  12  45 NW3       30.16F
GREAT FALLS MT FAIR      41   9  26 SW18      30.29F
CHEYENNE WY    FAIR      33   2  26 CALM      30.40R
SCOTTSBLUFF NE FAIR      27  11  51 NW6       30.36S WCI  20
OMAHA NE       PTSUNNY   40  25  55 N9        30.08R
DES MOINES IA  PTSUNNY   35  25  66 NW15      29.99R
DAVENPORT IA   FAIR      28  19  69 W16       29.92R WCI  16
CHICAGO IL     PTSUNNY   27  16  63 SW15      29.89F WCI  15
EAU CLAIRE WI  CLOUDY    20  16  84 S3        29.89R
LA CROSSE WI   CLOUDY    26  19  74 N7        29.91R WCI  18
$$

  *****  SOME NATIONAL WEATHER *****

CITY           SKY/WX    TMP DP  RH WIND       PRES   REMARKS
LA GUARDIA NY  FAIR      34  21  59 W14G25    29.92R WCI  25
RALEIGH NC     FAIR      35  27  72 W9        30.21R
ATLANTA GA     FAIR      33  23  66 NW8       30.28R
NEW ORLEANS LA FAIR      49  43  80 N3        30.41R
OKLAHOMA CITY  FAIR      39  23  52 SW5       30.31R
ALBUQUERQUE NM FAIR      28   5  37 N7        30.55R WCI  21
SALT LAKE CITY FAIR      23  18  81 SE5       30.65S WCI  17
LOS ANGELES CA MOCLDY    57  18  21 CALM      30.17S
BOISE ID       CLOUDY    25  20  81 SE7       30.72S WCI  17
SEATTLE WA     MOCLDY    39  26  59 NE6       30.44S
$$

*** WEATHER ACROSS MANITOBA...SASKATCHEWAN AND ONTARIO ***
                ***ONTARIO***

CITY           SKY/WX    TMP DP  RH WIND       PRES   REMARKS
GERALDTON      PTCLDY    -9 -15  77 N7        29.90R WCI -24
THUNDER BAY    PTCLDY     9   1  72 NE9G17    29.94R WCI  -5
SIOUX LOOKOUT  CLOUDY    -6 -11  77 N5        30.00R WCI -17
TORONTO        CLOUDY    27  16  63 W13G22    29.83S WCI  16
BIG TROUT LK   PTCLDY   -20 -26  76 W10       29.98F WCI -41
PICKLE LAKE    CRYSTALS -17 -22  76 NW5       29.98R FOG     WCI -29
DRYDEN         CLOUDY     5   1  85 NE7       29.96R WCI  -7
KENORA         FLURRIES  12   9  85 N6        29.97R WCI   3
$$
                *** MANITOBA***

CITY           SKY/WX    TMP DP  RH WIND       PRES   REMARKS
BRANDON        MOCLDY    21  16  79 SE6       29.98F WCI  14
DAUPHIN        CLOUDY    18  16  93 E3        30.01S
ISLAND LAKE    MOCLDY   -13 -18  77 VRB2      30.06F
PILOT MOUND      N/A     19  18  93 W1          N/A
THE PAS        FLURRIES  10   7  85 SE10      29.98F WCI  -3
THOMPSON       MOCLDY    -6 -11  77 SW3       30.01F
WINNIPEG       MOCLDY    19  16  86 N6        30.03S WCI  11
LYNN LAKE      CLOUDY     0   0 100 S3        29.90F
CHURCHILL      MOCLDY    -2  -8  78 W12       29.96S WCI -20
GILLAM         MOCLDY    -9 -15  77 W8        30.00F WCI -26
$$
                ***SASKATCHEWAN***

CITY           SKY/WX    TMP DP  RH WIND       PRES   REMARKS
ESTEVAN        CLOUDY    32  23  69 W9        30.00F WCI  24
KINDERSLEY     PTCLDY    23  16  74 W10       30.07F WCI  12
LLOYDMINSTER   CLOUDY    37  23  56 W20       30.01F
PRINCE ALBERT  CLOUDY    23  19  86 SW7       29.96S WCI  15
REGINA         MOCLDY    30  23  74 W10       30.00R WCI  21
YORKTON        PTCLDY    27  21  80 SW9       29.95R WC



USA.gov is the U.S. government's official web portal to all federal, state and local government web resources and services.